Appleton, WI

3:19 AM CST on November 24, 2017 (GMT -0600)
Outagamie County Regional

Weather History for KATW - January, 2014

Change the Weather History Date:

Sunday, January 12, 2014

  Actual Average Record
Temperature  
Mean Temperature 30 °F -  
Max Temperature 37 °F 23 °F 48 °F (2009)
Min Temperature 24 °F 7 °F -17 °F (1977)
Degree Days  
Heating Degree Days 34    
Moisture  
Dew Point 27 °F    
Average Humidity 88    
Maximum Humidity 100    
Minimum Humidity 65    
Precipitation  
Precipitation 0.00 in - - ()
Sea Level Pressure  
Sea Level Pressure 29.62 in    
Wind  
Wind Speed 13 mph (SSW)    
Max Wind Speed 23 mph    
Max Gust Speed 28 mph    
Visibility 10 miles    
Events      
Averages and records for this station are not official NWS values.
T = Trace of Precipitation, MM = Missing Value Source: NWS Daily Summary

Daily Weather History Graph

Daily Weather History Graph

Search for Another Location

Airport or City:

Trip Planner

Search our weather history database for the weather conditions in past years. The results will help you decide how hot, cold, wet, or windy it might be!

Date:

Astronomy

Jan. 12, 2014 Rise Set
Actual Time 7:27 AM CST 4:37 PM CST
Civil Twilight 6:55 AM CST 5:09 PM CST
Nautical Twilight 6:19 AM CST 5:45 PM CST
Astronomical Twilight 5:44 AM CST 6:20 PM CST
Moon 2:06 PM CST (1/12) 4:25 AM CST (1/12)
Length of Visible Light 10h 14m
Length of Day
9h 09m
Waxing Gibbous, 90% of the Moon is Illuminated
Jan 12
Waxing Gibbous
Jan 15
Full
Jan 23
Last Quarter
Jan 30
New
Feb 6
First Quarter

Hourly Weather History & Observations

Time (CST) Temp. Windchill Dew Point Humidity Pressure Visibility Wind Dir Wind Speed Gust Speed Precip Events Conditions
12:15 AM 30.2 °F 19.8 °F 26.6 °F 86% 29.67 in 10.0 mi West 13.8 mph - N/A   Overcast
12:35 AM 28.4 °F 17.5 °F 26.6 °F 93% 29.67 in 10.0 mi WSW 13.8 mph - N/A   Overcast
12:55 AM 28.4 °F 17.0 °F 26.6 °F 93% 29.67 in 10.0 mi West 15.0 mph - N/A   Overcast
1:15 AM 28.4 °F 17.5 °F 26.6 °F 93% 29.68 in 10.0 mi West 13.8 mph 18.4 mph N/A   Overcast
1:35 AM 28.4 °F 18.0 °F 26.6 °F 93% 29.69 in 10.0 mi West 12.7 mph - N/A   Overcast
1:55 AM 28.4 °F 19.1 °F 26.6 °F 93% 29.69 in 10.0 mi WSW 10.4 mph - N/A   Overcast
2:15 AM 28.4 °F 18.0 °F 26.6 °F 93% 29.70 in 10.0 mi WSW 12.7 mph - N/A   Overcast
2:35 AM 28.4 °F 17.5 °F 26.6 °F 93% 29.70 in 10.0 mi WSW 13.8 mph 17.3 mph N/A   Overcast
2:55 AM 28.4 °F 18.0 °F 26.6 °F 93% 29.70 in 10.0 mi WSW 12.7 mph 18.4 mph N/A   Overcast
3:15 AM 28.4 °F 19.1 °F 26.6 °F 93% 29.70 in 10.0 mi SW 10.4 mph - N/A   Overcast
3:35 AM 28.4 °F 18.5 °F 26.6 °F 93% 29.70 in 10.0 mi SW 11.5 mph - N/A   Overcast
3:55 AM 28.4 °F 18.5 °F 26.6 °F 93% 29.70 in 10.0 mi SW 11.5 mph - N/A   Overcast
4:15 AM 28.4 °F 18.5 °F 26.6 °F 93% 29.70 in 10.0 mi SW 11.5 mph - N/A   Overcast
4:35 AM 26.6 °F 16.2 °F 26.6 °F 100% 29.71 in 10.0 mi SW 11.5 mph - N/A   Overcast
4:55 AM 26.6 °F 19.1 °F 24.8 °F 93% 29.70 in 10.0 mi SW 6.9 mph - N/A   Overcast
5:15 AM 26.6 °F 16.8 °F 24.8 °F 93% 29.69 in 10.0 mi SSW 10.4 mph - N/A   Overcast
5:20 AM 26.6 °F 16.8 °F 24.8 °F 93% 29.70 in 10.0 mi SW 10.4 mph - N/A   Overcast
5:45 AM 26.6 °F 16.2 °F 24.8 °F 93% 29.69 in 10.0 mi SSW 11.5 mph - N/A   Overcast
6:45 AM 24.8 °F 14.0 °F 24.8 °F 100% 29.67 in 7.0 mi South 11.5 mph - N/A   Overcast
7:45 AM 24.8 °F 14.0 °F 24.8 °F 100% 29.67 in 5.0 mi South 11.5 mph - N/A   Overcast
8:45 AM 26.6 °F 15.2 °F 24.8 °F 93% 29.68 in 7.0 mi South 13.8 mph - N/A   Overcast
9:45 AM 28.4 °F 18.0 °F 24.8 °F 86% 29.65 in 10.0 mi South 12.7 mph - N/A   Mostly Cloudy
10:45 AM 30.2 °F 20.2 °F 26.6 °F 86% 29.63 in 10.0 mi SSE 12.7 mph - N/A   Mostly Cloudy
11:45 AM 33.8 °F 23.2 °F 28.4 °F 81% 29.56 in 10.0 mi South 17.3 mph 23.0 mph N/A   Mostly Cloudy
12:45 PM 35.6 °F 24.0 °F 26.6 °F 70% 29.54 in 10.0 mi South 23.0 mph 27.6 mph N/A   Mostly Cloudy
1:45 PM 37.4 °F 26.9 °F 26.6 °F 65% 29.50 in 10.0 mi South 20.7 mph 24.2 mph N/A   Mostly Cloudy
2:45 PM - - - N/A% 29.50 in 10.0 mi South 12.7 mph - N/A   Mostly Cloudy
3:45 PM 35.6 °F 26.2 °F 28.4 °F 75% 29.51 in 10.0 mi South 15.0 mph - N/A   Overcast
4:45 PM 37.4 °F 28.9 °F 28.4 °F 70% 29.50 in 10.0 mi South 13.8 mph - N/A   Overcast
5:45 PM 35.6 °F 27.1 °F 28.4 °F 75% 29.50 in 10.0 mi South 12.7 mph 18.4 mph N/A   Mostly Cloudy
6:45 PM 35.6 °F 26.2 °F 28.4 °F 75% 29.52 in 10.0 mi SSW 15.0 mph - N/A   Mostly Cloudy
7:45 PM 35.6 °F 26.2 °F 28.4 °F 75% 29.51 in 10.0 mi SSW 15.0 mph - N/A   Mostly Cloudy
8:45 PM 35.6 °F 26.6 °F 28.4 °F 75% 29.50 in 10.0 mi South 13.8 mph - N/A   Mostly Cloudy
9:45 PM 35.6 °F 28.0 °F 30.2 °F 81% 29.52 in 10.0 mi SSW 10.4 mph - N/A   Mostly Cloudy
10:45 PM 35.6 °F 28.6 °F 30.2 °F 81% 29.51 in 10.0 mi SSW 9.2 mph - N/A   Mostly Cloudy
11:15 PM 33.8 °F 27.0 °F 32.0 °F 93% 29.50 in 10.0 mi SSW 8.1 mph - N/A   Overcast
11:35 PM 33.8 °F 27.0 °F 32.0 °F 93% 29.49 in 10.0 mi SSW 8.1 mph - N/A   Overcast
11:55 PM 33.8 °F 27.7 °F 32.0 °F 93% 29.49 in 10.0 mi SSW 6.9 mph - N/A   Overcast